FW8347 Weather Reports


time (UTC)temp
C
wind
direction
speed
KPH
gust
KPH
rain 1hr
cm
rain 24hr
cm
rain mn
cm
humidity
%
barometer
mb
20260503220049 7 115 6.4 12.9 0.00 0.00 0.00 74 1009.5
20260503214552 7 74 6.4 14.5 0.00 0.00 0.00 71 1009.4
20260503213106 7 99 8.0 12.9 0.00 0.00 0.00 70 1009.0
20260503211618 7 96 9.7 14.5 0.00 0.00 0.00 66 1009.0
20260503210047 7 96 9.7 16.1 0.00 0.00 0.00 67 1009.0
20260503204601 7 90 9.7 14.5 0.00 0.00 0.00 70 1009.4
20260503203045 7 82 9.7 14.5 0.00 0.00 0.00 67 1009.4
20260503201542 7 81 8.0 12.9 0.00 0.00 0.00 70 1009.8
20260503200052 7 92 8.0 12.9 0.00 0.00 0.00 70 1009.9
20260503194546 8 67 6.4 11.3 0.00 0.00 0.00 68 1010.0
20260503193046 8 65 4.8 11.3 0.00 0.00 0.00 66 1010.4
20260503191557 8 15 4.8 8.0 0.00 0.00 0.00 65 1010.8
20260503190046 7 15 3.2 6.4 0.00 0.00 0.00 68 1011.2
20260503184603 7 15 3.2 6.4 0.00 0.00 0.00 67 1011.4
20260503183048 7 15 4.8 8.0 0.00 0.00 0.00 67 1011.5
20260503181547 7 15 6.4 8.0 0.00 0.00 0.00 67 1011.6
20260503180045 9 15 4.8 11.3 0.00 0.00 0.00 67 1011.7
20260503174601 8 62 1.6 6.4 0.00 0.00 0.00 61 1011.9
20260503173040 8 62 3.2 8.0 0.00 0.00 0.00 68 1011.9
20260503171547 8 71 4.8 8.0 0.00 0.00 0.00 66 1011.9
20260503081556 3 236 6.4 14.5 0.00 0.00 0.00 78 1013.6